Regional Weather Roundup
Issued by NWS Cleveland, OH

Home | Current Version | Previous Version | Graphics & Text | Print | Product List | Glossary On
Versions: 1 2 3 4 5 6 7 8 9 10 11 12 13 14 15 16 17 18 19 20 21 22 23 24 25 26 27 28 29 30 31 32 33 34 35 36 37 38 39 40 41 42 43 44 45 46 47 48 49 50
000
ASUS41 KCLE 280010
RWRCLE
OHIO REGIONAL WEATHER ROUNDUP
NATIONAL WEATHER SERVICE CLEVELAND, OH
800 PM EDT SAT AUG 27 2016

NOTE: "FAIR" INDICATES FEW OR NO CLOUDS BELOW 12,000 FEET WITH NO
SIGNIFICANT WEATHER AND/OR OBSTRUCTIONS TO VISIBILITY.

OHZ001>008-015>018-024>027-034-035-043-044-280100-
   NORTHWEST OHIO

CITY           SKY/WX    TMP DP  RH WIND       PRES   REMARKS
DEFIANCE       CLEAR     79  70  74 S3        30.10R
FINDLAY        MOCLDY    76  71  85 E5        30.10R
TOLEDO EXPRESS MOCLDY    74  73  97 SE3       30.10R
TOLEDO EXEC    CLOUDY    75  73  93 SE9       30.11R
LIMA           CLEAR     76  72  87 S3        30.11S
$$

OHZ009>014-019>023-028>033-038-089-280100-
   NORTHEAST OHIO

CITY           SKY/WX    TMP DP  RH WIND       PRES   REMARKS
CLE-HOPKINS    TSTM      76  70  82 W7        30.18R
CLE-LAKEFRONT  LGT RAIN  76  70  82 NE9       30.13R
CUY CO. ARPT   MOCLDY    75  72  88 N5        30.15S
LORAIN-ELYRIA  LGT RAIN  72  70  93 E7        30.14F
ASHTABULA      CLEAR     77  69  76 E5        30.14F
AKRON-CANTON   MOCLDY    85  68  56 SW3       30.15R THUNDER
WOOSTER        LGT RAIN  72  70  93 N9        30.17S
MANSFIELD      CLOUDY    73  72  96 E8        30.15F
YOUNGSTOWN     MOCLDY    79  67  66 E7        30.15R
$$

OHZ042-051>053-060>062-070>072-077>081-280100-
  SOUTHWEST OHIO

CITY           SKY/WX    TMP DP  RH WIND       PRES   REMARKS
CINC-COVINGTON PTCLDY    78  73  84 SE7       30.11R
CINC-LUNKEN    CLEAR     75  73  94 S3        30.11R
HAMILTON       CLEAR     77  71  82 CALM      30.11R
DAYTON         MOCLDY    79  72  79 SE5       30.13R
WRIGHT-PAT AFB PTCLDY    78  73  84 CALM      30.11R
DAYTON GENERAL CLOUDY    77  70  79 E3        30.11R
WILMINGTON     MOCLDY    74  70  87 SE6       30.12R
$$

OHZ036-037-039>041-045>050-054>059-063>069-073>076-082>088-280100-
  CENTRAL AND SOUTHEAST OHIO

CITY           SKY/WX    TMP DP  RH WIND       PRES   REMARKS
COLUMBUS       MOCLDY    74  70  87 E3        30.10S
OSU AIRPORT    CLOUDY    75  70  84 NE3       30.12R
BOLTON FIELD   PTCLDY    74  70  86 CALM      30.12S
RICKENBACK AFB PTCLDY    73  70  88 CALM      30.11S
NEWARK         CLEAR     74  69  85 N3        30.11F
MARION         CLOUDY    73  69  87 E3        30.13S
LANCASTER      PTCLDY    75  70  84 CALM      30.12F
ZANESVILLE     CLEAR     77  68  73 N3        30.13S
NEW PHILLY     LGT RAIN  80  66  62 NW9G18    30.15R
$$




USA.gov is the U.S. government's official web portal to all federal, state and local government web resources and services.